QPF
0.07 0.07 0.09 0.09 0.04 0.02 0.01 0.00 0.00 0.00 0.00 0.00 0.00 0.00 0.00 0.00 0.00 0.00 0.00 0.00 0.00 0.00 0.00 0.00 0.00 0.00 0.00 0.00 0.00 0.00 0.00 0.00 0.00 0.00 0.00 0.00 0.00 0.00 0.00 0.00 0.00 0.00 0.00
0.03 0.03 0.04 0.10 0.12 0.08 0.04 0.01 0.00 0.00 0.00 0.00 0.00 0.00 0.00 0.00 0.00 0.00 0.00 0.00 0.00 0.00 0.00 0.00 0.00 0.00 0.00 0.00 0.00 0.01 0.01 0.01 0.01 0.01 0.00 0.00 0.00 0.00 0.00 0.00 0.00 0.00 0.00
0.00 0.01 0.01 0.01 0.03 0.04 0.05 0.04 0.03 0.01 0.00 0.00 0.00 0.00 0.00 0.00 0.00 0.00 0.00 0.00 0.00 0.00 0.00 0.00 0.00 0.00 0.00 0.00 0.01 0.01 0.01 0.02 0.02 0.03 0.01 0.00 0.00 0.00 0.00 0.00 0.00 0.00 0.00
0.00 0.00 0.00 0.00 0.00 0.00 0.00 0.02 0.04 0.03 0.01 0.00 0.00 0.00 0.00 0.00 0.00 0.00 0.00 0.00 0.00 0.00 0.00 0.00 0.00 0.00 0.00 0.00 0.01 0.02 0.02 0.00 0.00 0.01 0.01 0.03 0.02 0.01 0.00 0.00 0.00 0.00 0.00
0.00 0.00 0.00 0.00 0.01 0.02 0.01 0.02 0.03 0.03 0.02 0.01 0.00 0.00 0.00 0.00 0.00 0.00 0.00 0.00 0.00 0.00 0.00 0.00 0.00 0.00 0.00 0.00 0.00 0.00 0.00 0.00 0.00 0.00 0.00 0.01 0.02 0.00 0.00 0.00 0.00 0.00 0.00
0.00 0.00 0.00 0.00 0.03 0.04 0.06 0.06 0.05 0.03 0.02 0.01 0.01 0.00 0.00 0.00 0.00 0.00 0.00 0.00 0.00 0.00 0.00 0.00 0.00 0.00 0.00 0.00 0.00 0.00 0.00 0.00 0.00 0.00 0.00 0.00 0.00 0.00 0.00 0.00 0.00 0.00 0.00
0.00 0.00 0.00 0.01 0.02 0.01 0.01 0.01 0.02 0.01 0.01 0.01 0.01 0.00 0.00 0.00 0.00 0.00 0.00 0.00 0.00 0.00 0.00 0.00 0.00 0.00 0.00 0.00 0.00 0.00 0.00 0.00 0.00 0.00 0.00 0.00 0.00 0.00 0.00 0.00 0.00 0.00 0.00
0.00 0.00 0.00 0.00 0.01 0.03 0.01 0.00 0.00 0.00 0.00 0.00 0.01 0.01 0.00 0.00 0.00 0.00 0.00 0.00 0.00 0.00 0.00 0.00 0.00 0.00 0.00 0.00 0.00 0.00 0.00 0.00 0.00 0.00 0.00 0.00 0.00 0.00 0.00 0.00 0.00 0.00 0.00
0.00 0.00 0.00 0.00 0.02 0.03 0.01 0.01 0.00 0.00 0.00 0.00 0.00 0.00 0.00 0.00 0.00 0.00 0.00 0.00 0.00 0.00 0.00 0.00 0.00 0.00 0.00 0.00 0.00 0.00 0.00 0.00 0.00 0.00 0.00 0.00 0.00 0.00 0.00 0.00 0.00 0.00 0.00
0.00 0.00 0.00 0.00 0.00 0.02 0.04 0.02 0.01 0.01 0.01 0.00 0.00 0.00 0.00 0.00 0.00 0.00 0.00 0.00 0.00 0.00 0.00 0.00 0.00 0.00 0.00 0.00 0.00 0.00 0.00 0.00 0.00 0.00 0.00 0.00 0.00 0.00 0.00 0.00 0.00 0.00 0.00
0.00 0.00 0.00 0.00 0.00 0.00 0.01 0.01 0.02 0.02 0.02 0.01 0.00 0.00 0.00 0.00 0.00 0.00 0.00 0.00 0.00 0.00 0.00 0.01 0.02 0.02 0.04 0.04 0.03 0.02 0.00 0.00 0.00 0.00 0.00 0.01 0.01 0.01 0.01 0.00 0.00 0.00 0.00
0.00 0.00 0.00 0.00 0.00 0.00 0.00 0.00 0.01 0.01 0.01 0.01 0.01 0.01 0.02 0.01 0.00 0.00 0.00 0.00 0.01 0.02 0.02 0.02 0.03 0.03 0.03 0.03 0.01 0.00 0.00 0.00 0.00 0.00 0.00 0.03 0.07 0.06 0.05 0.00 0.00 0.00 0.00
0.00 0.00 0.00 0.00 0.00 0.00 0.00 0.00 0.00 0.00 0.01 0.01 0.02 0.02 0.04 0.04 0.02 0.01 0.02 0.01 0.01 0.02 0.02 0.01 0.01 0.01 0.02 0.01 0.00 0.00 0.00 0.00 0.00 0.00 0.00 0.00 0.04 0.05 0.02 0.00 0.00 0.00 0.00
0.00 0.00 0.00 0.00 0.00 0.00 0.01 0.01 0.01 0.01 0.01 0.02 0.02 0.03 0.04 0.06 0.07 0.06 0.06 0.07 0.04 0.01 0.00 0.00 0.00 0.00 0.00 0.00 0.00 0.00 0.00 0.00 0.00 0.00 0.00 0.01 0.00 0.00 0.00 0.00 0.00 0.00 0.00
0.00 0.00 0.00 0.00 0.00 0.00 0.00 0.01 0.01 0.01 0.01 0.01 0.01 0.01 0.02 0.02 0.03 0.07 0.08 0.07 0.05 0.02 0.00 0.00 0.00 0.00 0.00 0.00 0.00 0.00 0.00 0.00 0.00 0.00 0.00 0.00 0.00 0.00 0.00 0.00 0.00 0.00 0.00
0.00 0.00 0.00 0.00 0.00 0.00 0.00 0.00 0.00 0.01 0.01 0.02 0.01 0.01 0.01 0.01 0.02 0.02 0.03 0.03 0.02 0.01 0.01 0.00 0.00 0.00 0.00 0.00 0.00 0.00 0.00 0.00 0.00 0.00 0.00 0.00 0.00 0.00 0.00 0.00 0.00 0.00 0.00
0.00 0.00 0.00 0.00 0.00 0.00 0.00 0.00 0.00 0.01 0.02 0.02 0.01 0.01 0.01 0.00 0.01 0.01 0.01 0.01 0.01 0.01 0.01 0.01 0.00 0.00 0.00 0.00 0.00 0.00 0.00 0.00 0.00 0.00 0.00 0.00 0.00 0.00 0.00 0.00 0.00 0.00 0.00
0.00 0.00 0.00 0.00 0.00 0.00 0.00 0.00 0.00 0.00 0.00 0.01 0.02 0.03 0.02 0.02 0.02 0.02 0.02 0.01 0.01 0.01 0.01 0.00 0.00 0.00 0.00 0.00 0.00 0.00 0.00 0.00 0.00 0.00 0.00 0.00 0.00 0.00 0.00 0.00 0.00 0.00 0.00
0.00 0.00 0.00 0.00 0.00 0.00 0.00 0.00 0.00 0.00 0.00 0.00 0.00 0.01 0.02 0.02 0.01 0.01 0.01 0.01 0.00 0.01 0.01 0.00 0.00 0.00 0.00 0.00 0.00 0.00 0.00 0.00 0.00 0.00 0.00 0.00 0.00 0.00 0.00 0.00 0.00 0.00 0.00
0.00 0.00 0.00 0.00 0.00 0.00 0.00 0.00 0.00 0.00 0.00 0.00 0.00 0.00 0.00 0.00 0.00 0.00 0.00 0.01 0.01 0.01 0.00 0.00 0.00 0.00 0.00 0.00 0.00 0.00 0.00 0.00 0.00 0.00 0.00 0.00 0.00 0.00 0.00 0.00 0.00 0.00 0.00
0.00 0.00 0.00 0.00 0.00 0.00 0.00 0.00 0.00 0.00 0.00 0.00 0.00 0.00 0.00 0.00 0.00 0.00 0.00 0.00 0.00 0.01 0.01 0.00 0.00 0.00 0.00 0.00 0.00 0.00 0.00 0.00 0.00 0.00 0.00 0.00 0.00 0.00 0.00 0.00 0.00 0.00 0.00
0.00 0.00 0.00 0.00 0.00 0.00 0.00 0.00 0.00 0.00 0.00 0.00 0.00 0.00 0.00 0.00 0.00 0.00 0.00 0.00 0.00 0.00 0.00 0.01 0.00 0.00 0.00 0.00 0.00 0.00 0.00 0.00 0.00 0.00 0.00 0.00 0.00 0.00 0.00 0.00 0.00 0.00 0.00
0.00 0.00 0.00 0.00 0.00 0.00 0.00 0.00 0.00 0.00 0.00 0.00 0.00 0.00 0.00 0.00 0.00 0.00 0.00 0.00 0.00 0.00 0.00 0.00 0.00 0.00 0.00 0.00 0.00 0.00 0.00 0.00 0.00 0.00 0.00 0.00 0.00 0.00 0.00 0.00 0.00 0.00 0.00
0.00 0.00 0.00 0.00 0.00 0.00 0.00 0.00 0.00 0.00 0.00 0.00 0.00 0.00 0.00 0.00 0.00 0.00 0.00 0.00 0.00 0.00 0.00 0.00 0.00 0.00 0.00 0.00 0.00 0.00 0.00 0.00 0.00 0.00 0.00 0.00 0.00 0.00 0.00 0.00 0.00 0.00 0.00
0.00 0.00 0.00 0.00 0.00 0.00 0.00 0.00 0.00 0.00 0.00 0.00 0.00 0.00 0.00 0.00 0.00 0.00 0.00 0.00 0.00 0.00 0.00 0.00 0.00 0.00 0.00 0.00 0.00 0.00 0.00 0.00 0.00 0.00 0.00 0.00 0.00 0.00 0.00 0.00 0.00 0.00 0.00
0.00 0.00 0.00 0.00 0.00 0.00 0.00 0.00 0.00 0.00 0.00 0.00 0.00 0.00 0.00 0.00 0.00 0.00 0.00 0.00 0.00 0.00 0.00 0.00 0.00 0.00 0.00 0.00 0.00 0.00 0.00 0.00 0.00 0.00 0.00 0.00 0.00 0.00 0.00 0.00 0.00 0.00 0.00
MSLP
1015.63 1015.79 1015.95 1016.21 1016.36 1016.77 1016.91 1017.16 1017.62 1018.00 1018.31 1018.88 1018.93 1019.06 1019.16 1019.25 1019.32 1019.34 1019.34 1019.48 1019.48 1019.45 1019.48 1019.45 1019.61 1019.83 1020.05 1020.16 1020.28 1020.35 1020.43 1020.40 1020.46 1020.50 1020.68 1020.69 1020.78 1020.84 1020.86 1020.85 1020.85 1020.88 1020.90
1015.41 1015.52 1015.77 1016.15 1016.40 1016.62 1017.01 1017.09 1017.24 1017.48 1018.02 1018.35 1018.66 1018.97 1018.99 1019.07 1019.10 1019.13 1019.16 1019.13 1019.27 1019.23 1019.24 1019.27 1019.18 1019.35 1019.51 1019.68 1019.78 1019.88 1019.90 1019.99 1020.02 1020.10 1020.26 1020.50 1020.49 1020.53 1020.61 1020.70 1020.72 1020.75 1020.66
1015.04 1015.37 1015.55 1015.79 1015.96 1016.30 1016.88 1017.17 1017.25 1017.25 1017.70 1017.93 1018.38 1018.55 1018.59 1018.68 1018.83 1018.80 1018.80 1018.89 1018.84 1018.97 1018.95 1018.96 1018.97 1018.98 1019.09 1019.16 1019.27 1019.35 1019.35 1019.43 1019.52 1019.61 1019.76 1020.00 1020.22 1020.15 1020.28 1020.38 1020.46 1020.44 1020.44
1015.08 1015.21 1015.43 1015.50 1015.66 1015.98 1016.39 1016.82 1016.98 1017.14 1017.37 1017.36 1017.99 1018.36 1018.28 1018.36 1018.32 1018.39 1018.40 1018.38 1018.41 1018.41 1018.50 1018.59 1018.64 1018.69 1018.74 1018.80 1018.82 1018.83 1018.82 1018.97 1019.14 1019.22 1019.29 1019.50 1019.76 1019.96 1019.86 1020.00 1020.19 1020.29 1020.27
1014.92 1014.99 1015.05 1015.11 1015.37 1015.61 1015.88 1016.29 1016.46 1016.93 1017.13 1017.42 1017.63 1018.14 1017.98 1017.84 1017.79 1017.89 1017.75 1017.83 1017.83 1017.85 1017.90 1017.98 1018.19 1018.33 1018.44 1018.52 1018.48 1018.51 1018.51 1018.49 1018.68 1018.76 1018.84 1018.98 1019.30 1019.60 1019.68 1019.63 1019.89 1020.10 1020.11
1014.53 1014.65 1014.80 1014.95 1015.11 1015.37 1015.57 1015.79 1016.14 1016.56 1016.98 1017.33 1017.37 1017.60 1017.62 1017.33 1017.17 1017.24 1017.13 1017.12 1017.19 1017.28 1017.26 1017.41 1017.57 1017.76 1017.97 1018.10 1018.16 1018.12 1018.20 1018.16 1018.30 1018.35 1018.50 1018.58 1018.86 1019.27 1019.38 1019.32 1019.48 1019.89 1020.06
1014.01 1014.33 1014.36 1014.76 1014.70 1015.02 1015.18 1015.34 1015.73 1016.03 1016.42 1016.79 1017.48 1017.16 1016.77 1016.60 1016.48 1016.56 1016.62 1016.37 1016.38 1016.44 1016.64 1016.71 1017.00 1017.16 1017.28 1017.52 1017.53 1017.73 1017.86 1017.84 1017.92 1017.92 1018.06 1018.33 1018.66 1018.94 1019.13 1019.25 1019.31 1019.57 1019.77
1013.46 1014.03 1014.12 1014.34 1014.46 1014.45 1014.69 1014.96 1015.08 1015.58 1016.09 1016.52 1016.71 1016.80 1016.56 1015.72 1015.66 1015.81 1015.76 1015.77 1015.72 1015.77 1015.86 1016.10 1016.22 1016.42 1016.60 1016.84 1016.91 1017.17 1017.34 1017.44 1017.52 1017.62 1017.71 1017.86 1018.37 1018.67 1018.83 1019.02 1019.20 1019.42 1019.60
1013.35 1013.67 1013.69 1013.84 1013.84 1013.81 1014.09 1014.15 1014.53 1014.78 1015.21 1015.66 1016.04 1016.57 1016.03 1015.23 1015.47 1014.93 1014.67 1014.59 1014.75 1015.01 1015.16 1015.33 1015.67 1015.73 1015.95 1016.26 1016.43 1016.62 1016.93 1017.09 1017.20 1017.20 1017.36 1017.83 1018.06 1018.38 1018.55 1018.83 1018.81 1019.07 1019.37
1012.53 1012.89 1013.14 1013.24 1013.39 1013.47 1013.73 1013.84 1013.87 1014.02 1014.70 1015.12 1015.68 1015.60 1015.41 1015.52 1015.04 1014.55 1014.49 1014.23 1014.31 1014.19 1014.23 1014.56 1014.77 1014.91 1015.27 1015.55 1015.95 1016.10 1016.38 1016.78 1016.81 1016.72 1016.78 1017.21 1017.40 1017.70 1018.16 1018.62 1018.54 1018.72 1018.97
1012.46 1012.49 1012.56 1012.71 1012.85 1012.86 1012.99 1013.06 1013.37 1013.50 1013.57 1013.96 1014.28 1014.59 1014.75 1015.03 1014.97 1014.72 1014.08 1013.98 1014.04 1013.89 1013.85 1014.20 1014.27 1014.56 1014.91 1015.16 1015.40 1015.93 1016.06 1016.35 1016.44 1016.33 1015.96 1016.51 1017.08 1017.35 1017.58 1018.13 1018.36 1018.45 1018.70
1012.33 1012.32 1012.16 1012.31 1012.30 1012.23 1012.29 1012.37 1012.35 1012.59 1012.73 1012.76 1013.03 1013.38 1013.50 1013.59 1013.56 1013.83 1013.94 1013.64 1013.82 1013.53 1013.76 1013.76 1014.15 1014.10 1014.43 1014.52 1014.75 1015.38 1015.48 1015.43 1016.07 1016.22 1015.70 1015.87 1016.38 1016.81 1016.99 1017.57 1018.15 1018.30 1018.62
1012.18 1012.17 1011.86 1011.73 1011.75 1011.62 1011.64 1011.58 1011.60 1011.54 1011.64 1011.64 1011.64 1011.76 1012.16 1012.45 1012.44 1012.47 1012.74 1012.87 1013.24 1013.34 1013.49 1013.46 1013.47 1013.72 1013.80 1014.05 1014.31 1014.83 1015.03 1015.01 1015.38 1015.66 1015.69 1015.66 1015.82 1016.45 1016.98 1017.43 1017.87 1018.16 1018.44
1013.24 1012.95 1012.23 1011.86 1011.60 1011.26 1010.93 1010.67 1010.58 1010.63 1010.58 1010.50 1010.43 1010.37 1010.88 1011.60 1011.88 1011.94 1012.00 1012.30 1012.64 1013.11 1013.08 1012.57 1012.95 1012.82 1013.26 1013.32 1013.70 1014.20 1014.50 1014.92 1014.94 1014.95 1015.17 1015.39 1015.79 1016.29 1016.97 1017.52 1017.76 1018.14 1018.28
1013.76 1013.80 1012.97 1012.39 1011.91 1011.32 1011.20 1010.40 1009.66 1009.64 1009.70 1009.63 1009.60 1009.66 1010.14 1010.52 1010.79 1011.03 1011.02 1011.66 1011.89 1012.28 1012.27 1011.88 1012.81 1012.75 1012.58 1013.14 1013.40 1013.69 1014.05 1014.33 1014.43 1014.57 1014.81 1015.41 1016.03 1016.38 1016.93 1017.38 1017.63 1018.14 1018.32
1014.28 1014.28 1013.28 1012.80 1012.58 1012.06 1011.79 1011.28 1010.43 1009.78 1009.63 1008.93 1008.94 1009.02 1009.27 1009.50 1009.80 1010.00 1010.44 1010.80 1011.20 1011.61 1011.40 1011.69 1011.62 1012.10 1012.35 1012.63 1012.64 1013.04 1013.42 1013.88 1013.85 1014.17 1014.74 1015.53 1015.91 1016.32 1016.81 1017.39 1017.63 1018.05 1018.29
1014.85 1014.67 1014.56 1013.43 1013.04 1012.87 1012.21 1011.82 1011.20 1010.70 1010.26 1009.81 1009.33 1008.67 1008.63 1009.13 1009.21 1009.48 1009.74 1010.05 1010.36 1010.92 1010.35 1011.01 1011.12 1011.71 1012.13 1012.20 1012.48 1012.52 1012.99 1013.14 1013.41 1013.82 1014.57 1015.27 1015.79 1016.16 1016.56 1017.09 1017.58 1018.15 1018.10
1015.16 1014.78 1014.64 1014.01 1013.78 1013.40 1012.93 1012.20 1011.65 1011.39 1010.86 1010.58 1010.24 1009.46 1008.88 1008.81 1008.28 1008.81 1008.93 1009.08 1009.20 1009.42 1009.93 1010.20 1010.88 1011.40 1011.44 1011.38 1011.82 1012.34 1012.64 1012.80 1013.06 1013.71 1014.52 1014.96 1015.45 1015.91 1016.44 1016.99 1017.54 1017.81 1017.81
1015.52 1015.23 1014.73 1014.46 1014.09 1013.75 1013.26 1012.78 1012.26 1011.95 1011.59 1011.20 1010.88 1010.31 1009.74 1009.28 1008.65 1008.20 1008.14 1007.94 1008.16 1008.41 1008.77 1009.32 1009.95 1010.76 1011.40 1011.33 1011.83 1012.04 1012.49 1012.84 1013.24 1013.66 1014.12 1014.51 1015.17 1015.84 1016.44 1016.78 1017.28 1017.50 1017.76
1016.13 1015.88 1015.55 1015.17 1014.64 1014.24 1013.86 1013.34 1012.79 1012.45 1011.98 1011.40 1011.03 1010.73 1010.34 1009.84 1009.44 1009.03 1008.58 1007.77 1007.55 1007.76 1008.18 1008.73 1009.35 1009.92 1010.48 1010.84 1011.22 1011.79 1012.67 1012.85 1013.26 1013.69 1013.94 1014.37 1014.95 1015.54 1016.09 1016.36 1016.83 1017.36 1017.87
1016.66 1016.44 1015.95 1015.43 1014.99 1014.48 1014.14 1013.57 1013.10 1012.72 1012.23 1011.66 1011.31 1010.84 1010.44 1010.20 1009.81 1009.41 1009.09 1008.44 1007.92 1007.39 1007.44 1007.86 1008.65 1009.05 1009.52 1010.03 1010.37 1010.99 1011.82 1012.60 1013.17 1013.51 1013.83 1014.19 1014.72 1015.20 1015.62 1015.90 1016.28 1017.03 1017.62
1016.64 1016.36 1016.06 1015.62 1015.15 1014.70 1014.20 1013.57 1013.22 1012.92 1012.39 1012.06 1011.54 1010.89 1010.52 1010.23 1009.66 1009.17 1008.73 1008.54 1008.50 1007.94 1007.30 1007.14 1007.21 1007.77 1007.95 1008.45 1009.33 1009.83 1010.95 1012.20 1013.25 1012.99 1013.50 1014.01 1014.45 1014.91 1015.23 1015.68 1015.96 1016.64 1016.83
1016.71 1016.32 1015.92 1015.50 1015.10 1014.65 1014.00 1013.54 1013.29 1012.89 1012.52 1011.90 1011.52 1011.10 1010.47 1010.09 1009.70 1009.03 1008.44 1008.08 1007.68 1007.31 1007.29 1006.92 1006.14 1006.38 1006.69 1007.09 1007.73 1008.85 1009.34 1009.98 1010.54 1011.15 1011.69 1013.22 1014.12 1014.74 1014.95 1015.38 1015.72 1016.31 1016.55
1016.93 1016.51 1016.08 1015.67 1015.24 1014.63 1014.12 1013.67 1013.13 1012.77 1012.42 1012.12 1011.62 1010.88 1010.20 1009.79 1009.37 1008.94 1008.24 1007.63 1007.02 1006.69 1006.55 1006.04 1005.98 1005.56 1005.30 1005.80 1006.30 1006.60 1007.14 1008.92 1010.29 1010.87 1011.00 1012.41 1013.59 1014.43 1014.67 1014.94 1015.26 1015.70 1015.96
1016.82 1016.32 1015.83 1015.30 1014.88 1014.34 1013.78 1013.37 1012.91 1012.68 1012.32 1011.82 1011.28 1010.70 1010.25 1009.50 1009.06 1008.65 1007.96 1007.46 1006.71 1006.38 1006.03 1005.64 1005.17 1004.95 1004.99 1004.82 1005.35 1006.65 1007.56 1008.73 1009.88 1010.43 1010.71 1011.12 1012.90 1013.74 1014.43 1014.57 1014.92 1015.13 1015.61
1016.80 1016.27 1015.70 1015.22 1014.76 1014.20 1013.83 1013.37 1012.92 1012.42 1011.97 1011.55 1011.15 1010.53 1009.98 1009.54 1008.90 1008.38 1008.08 1007.42 1006.53 1006.06 1005.76 1005.18 1004.88 1004.38 1004.14 1004.08 1004.59 1004.93 1005.85 1006.91 1008.29 1009.65 1009.94 1010.50 1012.16 1012.91 1014.49 1014.40 1014.58 1014.95 1015.20
Thickness
5682 5682 5682 5681 5680 5679 5679 5679 5678 5678 5678 5676 5678 5678 5678 5679 5680 5682 5683 5685 5685 5685 5684 5684 5683 5681 5679 5678 5677 5675 5674 5674 5672 5670 5667 5665 5663 5661 5659 5657 5655 5651 5648
5673 5674 5674 5675 5675 5674 5672 5672 5672 5671 5670 5671 5671 5671 5672 5673 5674 5676 5678 5679 5681 5682 5681 5681 5681 5679 5678 5675 5674 5673 5673 5671 5670 5667 5664 5660 5659 5658 5655 5652 5649 5647 5645
5666 5667 5668 5669 5669 5668 5666 5665 5665 5666 5664 5665 5664 5664 5667 5667 5668 5670 5672 5674 5676 5677 5677 5677 5676 5676 5675 5673 5672 5671 5671 5669 5667 5665 5662 5657 5654 5655 5652 5649 5646 5644 5641
5655 5658 5660 5662 5662 5662 5660 5660 5662 5661 5659 5661 5658 5656 5660 5663 5664 5665 5667 5669 5671 5672 5673 5672 5671 5671 5670 5669 5669 5668 5667 5665 5663 5662 5659 5655 5652 5650 5650 5647 5642 5639 5635
5647 5650 5654 5657 5656 5657 5657 5655 5655 5653 5651 5650 5650 5648 5651 5657 5659 5660 5663 5665 5667 5668 5668 5669 5668 5667 5665 5664 5663 5662 5662 5662 5659 5658 5655 5652 5649 5646 5645 5644 5639 5635 5631
5642 5647 5648 5648 5649 5650 5650 5650 5648 5643 5642 5640 5642 5641 5645 5651 5653 5657 5659 5662 5661 5663 5664 5664 5663 5662 5660 5658 5657 5657 5654 5655 5653 5652 5650 5648 5645 5641 5640 5639 5637 5631 5626
5638 5640 5642 5640 5644 5643 5644 5644 5642 5638 5636 5634 5628 5635 5641 5647 5647 5648 5650 5656 5659 5658 5659 5659 5657 5656 5656 5655 5654 5651 5650 5649 5646 5646 5645 5641 5639 5636 5634 5632 5629 5627 5623
5633 5632 5635 5633 5635 5638 5638 5637 5637 5630 5628 5625 5625 5626 5628 5642 5646 5648 5647 5650 5652 5651 5653 5652 5653 5652 5651 5648 5648 5647 5644 5642 5640 5638 5637 5635 5632 5629 5626 5623 5622 5620 5617
5623 5625 5626 5627 5630 5633 5632 5632 5629 5628 5624 5622 5621 5617 5618 5629 5631 5640 5644 5646 5647 5645 5646 5646 5644 5645 5641 5638 5640 5639 5637 5634 5632 5631 5629 5624 5624 5622 5619 5616 5617 5616 5612
5621 5621 5623 5622 5624 5625 5625 5623 5623 5623 5615 5615 5613 5616 5620 5620 5622 5629 5634 5639 5636 5639 5641 5640 5637 5637 5635 5633 5631 5631 5629 5626 5626 5626 5625 5621 5620 5619 5615 5609 5613 5611 5609
5611 5615 5617 5618 5619 5620 5620 5620 5615 5614 5614 5613 5614 5615 5613 5613 5615 5617 5625 5628 5627 5630 5631 5629 5628 5630 5628 5628 5626 5623 5621 5618 5618 5620 5623 5619 5614 5614 5612 5606 5605 5606 5603
5604 5607 5609 5611 5615 5618 5617 5615 5614 5613 5613 5615 5614 5615 5616 5616 5618 5614 5612 5617 5613 5619 5618 5621 5620 5620 5620 5622 5621 5617 5618 5619 5614 5612 5617 5617 5613 5609 5610 5606 5599 5599 5595
5595 5598 5604 5608 5611 5613 5614 5615 5613 5613 5614 5615 5617 5617 5616 5615 5618 5617 5613 5613 5607 5608 5609 5613 5616 5615 5615 5617 5616 5613 5613 5613 5610 5608 5608 5607 5610 5604 5601 5599 5594 5591 5589
5576 5582 5590 5597 5602 5605 5610 5612 5611 5612 5613 5615 5616 5620 5616 5611 5609 5608 5608 5604 5602 5597 5601 5611 5610 5613 5612 5613 5612 5609 5607 5604 5605 5604 5602 5601 5597 5597 5592 5588 5587 5583 5583
5564 5567 5576 5582 5588 5593 5595 5601 5608 5609 5609 5610 5612 5612 5609 5608 5607 5606 5605 5600 5598 5595 5600 5606 5600 5604 5608 5604 5604 5602 5600 5599 5598 5596 5594 5590 5585 5584 5581 5578 5577 5573 5573
5552 5554 5564 5569 5572 5574 5577 5583 5591 5597 5598 5604 5606 5607 5606 5604 5604 5603 5600 5597 5594 5590 5593 5597 5600 5597 5598 5598 5599 5596 5594 5592 5592 5588 5585 5580 5576 5574 5570 5567 5567 5564 5564
5539 5542 5544 5553 5556 5556 5563 5568 5575 5578 5582 5587 5592 5598 5598 5594 5594 5593 5592 5590 5588 5585 5592 5595 5592 5589 5587 5588 5587 5587 5585 5585 5583 5580 5576 5571 5567 5563 5562 5560 5557 5553 5554
5528 5532 5534 5540 5541 5544 5549 5555 5559 5560 5566 5570 5573 5581 5586 5584 5589 5586 5585 5586 5585 5586 5583 5588 5579 5577 5580 5582 5579 5576 5574 5573 5572 5569 5564 5561 5558 5555 5552 5550 5546 5546 5546
5518 5520 5525 5528 5531 5534 5538 5540 5544 5547 5550 5553 5556 5561 5567 5569 5576 5580 5582 5584 5583 5582 5580 5578 5571 5568 5566 5568 5565 5564 5563 5560 5559 5557 5554 5553 5548 5544 5540 5539 5536 5536 5537
5507 5508 5511 5513 5518 5522 5525 5528 5532 5534 5538 5542 5544 5547 5551 5555 5558 5561 5566 5574 5576 5575 5572 5569 5563 5561 5557 5556 5555 5554 5547 5547 5546 5544 5544 5542 5539 5535 5531 5531 5530 5527 5527
5497 5498 5501 5504 5508 5511 5513 5517 5520 5522 5525 5529 5531 5535 5539 5539 5541 5546 5551 5557 5563 5568 5568 5565 5556 5554 5552 5551 5553 5549 5544 5539 5535 5534 5534 5533 5530 5527 5525 5525 5524 5522 5521
5490 5491 5493 5495 5497 5499 5503 5506 5509 5510 5513 5514 5517 5522 5525 5526 5531 5535 5538 5540 5542 5548 5557 5561 5561 5558 5559 5555 5549 5547 5538 5529 5524 5527 5525 5522 5521 5519 5518 5517 5518 5516 5517
5481 5482 5484 5486 5487 5488 5491 5493 5494 5496 5498 5501 5503 5505 5509 5510 5513 5519 5524 5528 5533 5535 5537 5544 5555 5555 5555 5555 5550 5539 5539 5537 5538 5530 5527 5518 5511 5509 5511 5510 5509 5506 5507
5467 5468 5469 5470 5471 5474 5475 5477 5479 5480 5481 5480 5483 5488 5493 5494 5495 5498 5504 5511 5518 5522 5523 5529 5534 5544 5550 5547 5544 5544 5544 5530 5519 5517 5520 5514 5504 5499 5500 5501 5501 5498 5499
5455 5455 5456 5456 5456 5457 5458 5458 5459 5458 5458 5459 5462 5465 5467 5472 5473 5475 5481 5485 5494 5498 5501 5507 5517 5525 5529 5534 5533 5526 5520 5514 5506 5506 5508 5509 5494 5491 5489 5491 5491 5489 5488
5439 5439 5438 5437 5437 5438 5436 5436 5435 5436 5436 5437 5437 5437 5438 5439 5442 5445 5446 5454 5465 5471 5474 5481 5490 5501 5510 5517 5517 5519 5515 5512 5500 5493 5500 5498 5486 5483 5477 5479 5480 5479 5479